sat.trackr.live / text

‹ back to catalog

STARLINK-37283

NORAD 68568 · 2026-070AC

PAYLOAD ACTIVE UNKNOWN

§ Identity

Operator
Country
US
Launch date
2026-04-02
Launch site
AFETR
Launch vehicle
Mass (kg)
RCS (m²)

Purposes: comms

External: N2YO · Heavens-Above · Gunter

§ Orbital elements

Epoch: 2026-09-20T01:11:55.165056Z

Period
93.85 min
Inclination
53.1578°
Eccentricity
0.0001424
Mean motion
15.34404671 rev/d
Perigee alt
461.7 km
Apogee alt
463.7 km
Semi-major
6,840.8 km
B*
5.8563e-4
RAAN
176.1519°
Arg perigee
91.2771°
Mean anomaly
268.8395°
Rev number
2,636

§ Raw data

STARLINK-372831 68568U 26070AC  26263.04994404  .00019465  00000+0  58563-3 0  99952 68568  53.1578 176.1519 0001424  91.2771 268.8395 15.34404671 26365

JSON: /api/v1/satellites/68568 · /tle

For live sub-satellite position, see the globe view (requires WebGL).

§ Visibility from observer

Set your observer location to see the next 7 days of passes ≥ 10°. The values pass through the URL so the page stays shareable.

No JS? Fill the form by hand. The geolocation button needs JavaScript.